Weather History for Allentown, PA

Change the Weather History Date:

Tuesday, January 21, 2014

  Actual Average (KABE) Record (KABE)
Temperature  
Mean Temperature 22 °F 28 °F  
Max Temperature 30 °F 36 °F 63 °F (1959)
Min Temperature 12 °F 19 °F -15 °F (1994)
Degree Days  
Heating Degree Days 43 37  
Month to date heating degree days 785  
Since 1 July heating degree days 2980  
Cooling Degree Days 0 0  
Month to date cooling degree days 0  
Year to date cooling degree days 0  
Moisture  
Dew Point 9 °F    
Average Humidity 63    
Maximum Humidity 80    
Minimum Humidity 35    
Precipitation  
Precipitation 0.02 in 0.10 in 1.42 in (1979)
Month to date precipitation 2.04  
Year to date precipitation 2.04  
Snow  
Snow 0.00 in 0.30 in 7.00 in (2001)
Month to date snowfall 6.5  
Since 1 July snowfall 12.4  
Snow Depth -    
Sea Level Pressure  
Sea Level Pressure 29.92 in    
Wind  
Wind Speed 10 mph (NNE)    
Max Wind Speed 14 mph    
Max Gust Speed 23 mph    
Visibility 5 miles    
Events Snow    
T = Trace of Precipitation, MM = Missing Value Source: NWS Daily Summary

Daily Weather History Graph

Daily Weather History Graph

Search for Another Location

Airport:

Trip Planner

Search our weather history database for the weather conditions in past years. The results will help you decide how hot, cold, wet, or windy it might be!

Date:

Astronomy

Jan. 21, 2014 Rise Set
Actual Time 7:20 AM EST 5:06 PM EST
Civil Twilight 6:50 AM EST 5:36 PM EST
Nautical Twilight 6:17 AM EST 6:09 PM EST
Astronomical Twilight 5:44 AM EST 6:42 PM EST
Moon 10:38 PM EST (1/21) 9:47 AM EST (1/21)
Length of Visible Light 10h 45m
Length of Day
9h 46m
Waning Gibbous, 75% of the Moon is Illuminated
Jan 21
Waning Gibbous
Jan 24
Last Quarter
Jan 30
New
Feb 6
First Quarter
Feb 14
Full

Hourly Weather History & Observations

Time (EST) Temp. Windchill Dew Point Humidity Pressure Visibility Wind Dir Wind Speed Gust Speed Precip Events Conditions
12:15 AM 30.2 °F 19.8 °F 17.6 °F 60% 29.91 in 10.0 mi North 13.8 mph - N/A   Clear
12:35 AM 30.2 °F 23.4 °F 17.6 °F 60% 29.91 in 10.0 mi North 6.9 mph - N/A   Clear
12:55 AM 28.4 °F 19.7 °F 15.8 °F 59% 29.92 in 10.0 mi NNW 9.2 mph - N/A   Clear
1:15 AM 28.4 °F 19.7 °F 14.0 °F 55% 29.93 in 10.0 mi North 9.2 mph - N/A   Clear
1:35 AM 28.4 °F 20.4 °F 12.2 °F 51% 29.93 in 10.0 mi North 8.1 mph - N/A   Scattered Clouds
1:55 AM 28.4 °F 21.2 °F 12.2 °F 51% 29.93 in 10.0 mi North 6.9 mph - N/A   Clear
2:15 AM 26.6 °F 19.1 °F 12.2 °F 55% 29.94 in 10.0 mi NNE 6.9 mph - N/A   Clear
2:35 AM 26.6 °F 18.2 °F 12.2 °F 55% 29.94 in 10.0 mi NNE 8.1 mph - N/A   Clear
2:55 AM 26.6 °F 19.1 °F 10.4 °F 51% 29.95 in 10.0 mi NNE 6.9 mph - N/A   Clear
3:15 AM 26.6 °F 20.0 °F 8.6 °F 47% 29.96 in 10.0 mi NNE 5.8 mph - N/A   Clear
3:35 AM 24.8 °F 16.9 °F 8.6 °F 50% 29.96 in 10.0 mi NE 6.9 mph - N/A   Clear
3:55 AM 24.8 °F 16.1 °F 8.6 °F 50% 29.95 in 10.0 mi NNE 8.1 mph - N/A   Scattered Clouds
4:15 AM 24.8 °F 16.9 °F 8.6 °F 50% 29.95 in 10.0 mi NNE 6.9 mph - N/A   Clear
4:35 AM 24.8 °F 15.3 °F 8.6 °F 50% 29.94 in 10.0 mi NNE 9.2 mph - N/A   Clear
4:55 AM 24.8 °F 16.9 °F 6.8 °F 46% 29.93 in 10.0 mi NNE 6.9 mph - N/A   Clear
5:15 AM 24.8 °F 15.3 °F 6.8 °F 46% 29.93 in 10.0 mi NE 9.2 mph - N/A   Clear
5:35 AM 24.8 °F 16.1 °F 6.8 °F 46% 29.94 in 10.0 mi NNE 8.1 mph - N/A   Scattered Clouds
5:55 AM 24.8 °F 17.9 °F 6.8 °F 46% 29.96 in 10.0 mi North 5.8 mph - N/A   Overcast
6:15 AM 23.0 °F 14.7 °F 5.0 °F 46% 29.95 in 10.0 mi NNE 6.9 mph - N/A   Scattered Clouds
6:35 AM 23.0 °F 12.4 °F 5.0 °F 46% 29.94 in 10.0 mi NE 10.4 mph - N/A   Mostly Cloudy
6:55 AM 23.0 °F 13.1 °F 6.8 °F 50% 29.95 in 10.0 mi NE 9.2 mph - N/A   Overcast
7:15 AM 23.0 °F 11.7 °F 5.0 °F 46% 29.95 in 10.0 mi ENE 11.5 mph - N/A   Overcast
7:35 AM 21.2 °F 10.9 °F 10.4 °F 63% 29.95 in 2.0 mi ENE 9.2 mph - N/A Snow Light Snow
7:55 AM 21.2 °F 10.9 °F 14.0 °F 74% 29.95 in 0.8 mi ENE 9.2 mph - N/A Snow Light Snow
8:15 AM 21.2 °F 10.9 °F 14.0 °F 74% 29.95 in 1.5 mi NNE 9.2 mph - N/A Snow Light Snow
8:35 AM 21.2 °F 10.9 °F 14.0 °F 74% 29.96 in 1.0 mi NE 9.2 mph - N/A Snow Light Snow
8:55 AM 21.2 °F 10.1 °F 14.0 °F 74% 29.97 in 1.0 mi NE 10.4 mph - N/A Snow Light Snow
9:15 AM 21.2 °F 10.1 °F 14.0 °F 74% 29.97 in 1.2 mi NE 10.4 mph - N/A Snow Light Snow
9:35 AM 19.4 °F 10.4 °F 14.0 °F 80% 29.99 in 0.8 mi NNE 6.9 mph - N/A Snow Light Snow
9:55 AM 19.4 °F 7.2 °F 14.0 °F 80% 29.99 in 0.8 mi NNE 11.5 mph - N/A Snow Light Snow
10:15 AM 19.4 °F 6.6 °F 14.0 °F 80% 30.00 in 0.5 mi NNE 12.7 mph - 0.01 in Snow Light Snow
10:35 AM 19.4 °F 7.2 °F 14.0 °F 80% 29.99 in 0.8 mi NNE 11.5 mph - 0.01 in Snow Light Snow
10:55 AM 19.4 °F 7.9 °F 14.0 °F 80% 29.99 in 1.0 mi NNE 10.4 mph - 0.01 in Snow Light Snow
11:15 AM 19.4 °F 10.4 °F 14.0 °F 80% 29.99 in 1.2 mi North 6.9 mph - N/A Snow Light Snow
11:35 AM 19.4 °F 7.9 °F 14.0 °F 80% 29.97 in 0.8 mi NNE 10.4 mph - 0.01 in Snow Light Snow
11:55 AM 19.4 °F 9.5 °F 14.0 °F 80% 29.95 in 0.8 mi NNE 8.1 mph - 0.01 in Snow Light Snow
12:15 PM 19.4 °F 10.4 °F 14.0 °F 80% 29.94 in 1.0 mi NNE 6.9 mph - N/A Snow Light Snow
12:35 PM 19.4 °F 7.9 °F 14.0 °F 80% 29.92 in 0.8 mi North 10.4 mph - N/A Snow Light Snow
12:55 PM 19.4 °F 7.9 °F 14.0 °F 80% 29.90 in 0.8 mi NNE 10.4 mph 16.1 mph N/A Snow Light Snow
1:15 PM 19.4 °F 8.6 °F 14.0 °F 80% 29.88 in 1.0 mi North 9.2 mph - N/A Snow Light Snow
1:35 PM 19.4 °F 6.6 °F 14.0 °F 80% 29.87 in 1.5 mi NNE 12.7 mph 17.3 mph N/A Snow Light Snow
1:55 PM 19.4 °F 6.6 °F 12.2 °F 74% 29.86 in 1.8 mi North 12.7 mph 17.3 mph N/A Snow Light Snow
2:15 PM 19.4 °F 8.6 °F 12.2 °F 74% 29.86 in 1.0 mi NNE 9.2 mph 18.4 mph N/A Snow Light Snow
2:35 PM 19.4 °F 7.9 °F 12.2 °F 74% 29.85 in 1.2 mi NNE 10.4 mph - N/A Snow Light Snow
2:55 PM 19.4 °F 7.9 °F 12.2 °F 74% 29.86 in 1.2 mi NNE 10.4 mph - N/A Snow Light Snow
3:15 PM 19.4 °F 6.6 °F 12.2 °F 74% 29.86 in 1.2 mi NE 12.7 mph - N/A Snow Light Snow
3:35 PM 19.4 °F 6.0 °F 12.2 °F 74% 29.86 in 1.8 mi NE 13.8 mph - N/A Snow Light Snow
3:55 PM 19.4 °F 7.2 °F 12.2 °F 74% 29.87 in 1.5 mi NE 11.5 mph 18.4 mph N/A Snow Light Snow
4:15 PM 19.4 °F 6.6 °F 12.2 °F 74% 29.87 in 1.2 mi NNE 12.7 mph - N/A Snow Light Snow
4:35 PM 17.6 °F 5.0 °F 12.2 °F 79% 29.88 in 1.0 mi NNE 11.5 mph - N/A Snow Light Snow
4:55 PM 17.6 °F 5.0 °F 12.2 °F 79% 29.88 in 1.5 mi NNE 11.5 mph 19.6 mph N/A Snow Light Snow
5:15 PM 17.6 °F 3.7 °F 10.4 °F 73% 29.89 in 1.2 mi NNE 13.8 mph 19.6 mph N/A Snow Light Snow
5:35 PM 17.6 °F 5.0 °F 10.4 °F 73% 29.90 in 2.0 mi NNE 11.5 mph 17.3 mph N/A Snow Light Snow
5:55 PM 17.6 °F 4.3 °F 10.4 °F 73% 29.91 in 2.5 mi North 12.7 mph - N/A Snow Light Snow
6:15 PM 17.6 °F 5.7 °F 10.4 °F 73% 29.91 in 1.2 mi NNE 10.4 mph - N/A Snow Light Snow
6:35 PM 17.6 °F 4.3 °F 10.4 °F 73% 29.91 in 1.2 mi NNE 12.7 mph 17.3 mph N/A Snow Light Snow
6:55 PM 15.8 °F 1.4 °F 10.4 °F 79% 29.92 in 1.0 mi NNE 13.8 mph - N/A Snow Light Snow
7:15 PM 15.8 °F 1.4 °F 8.6 °F 73% 29.91 in 3.0 mi NNE 13.8 mph 20.7 mph N/A Snow Light Snow
7:35 PM 15.8 °F 2.7 °F 8.6 °F 73% 29.92 in 2.5 mi North 11.5 mph - N/A Snow Light Snow
7:55 PM 15.8 °F 2.7 °F 5.0 °F 62% 29.92 in 7.0 mi North 11.5 mph 23.0 mph N/A Snow Light Snow
8:15 PM 15.8 °F 1.4 °F 5.0 °F 62% 29.91 in 7.0 mi North 13.8 mph 19.6 mph N/A   Overcast
8:35 PM 15.8 °F 2.7 °F 5.0 °F 62% 29.91 in 7.0 mi North 11.5 mph - N/A   Overcast
8:55 PM 15.8 °F 5.1 °F 5.0 °F 62% 29.91 in 10.0 mi North 8.1 mph - N/A   Overcast
9:15 PM 15.8 °F 7.2 °F 3.2 °F 58% 29.91 in 10.0 mi NNW 5.8 mph - N/A   Overcast
9:35 PM 15.8 °F 5.1 °F -4.0 °F 41% 29.92 in 10.0 mi NNW 8.1 mph - N/A   Overcast
9:55 PM 14.0 °F 2.0 °F -5.8 °F 41% 29.91 in 10.0 mi North 9.2 mph - N/A   Scattered Clouds
10:15 PM 14.0 °F 2.0 °F -5.8 °F 41% 29.91 in 10.0 mi North 9.2 mph 17.3 mph N/A   Scattered Clouds
10:35 PM 14.0 °F 0.5 °F -7.6 °F 38% 29.91 in 10.0 mi North 11.5 mph 16.1 mph N/A   Mostly Cloudy
10:55 PM 14.0 °F 1.2 °F -7.6 °F 38% 29.90 in 10.0 mi North 10.4 mph 18.4 mph N/A   Clear
11:15 PM 14.0 °F 2.0 °F -9.4 °F 35% 29.89 in 10.0 mi North 9.2 mph 19.6 mph N/A   Scattered Clouds
11:35 PM 14.0 °F 0.5 °F -7.6 °F 38% 29.87 in 10.0 mi NNW 11.5 mph - N/A   Clear
11:55 PM 12.2 °F -1.8 °F -9.4 °F 38% 29.87 in 10.0 mi NNW 11.5 mph 19.6 mph N/A   Clear